Flag for Australia Weather past 2 weeks in Campbelltown, New South Wales, Australia

Now
65 °F

Mild.


Feels Like: 65 °F
Forecast: 62 / 81 °F
Wind: 5 mph from Southeast

Location: Camden Airport

Current Time: Dec 20, 2014 at 9:49:11 PM

Latest Report: Dec 20, 2014 at 9:00 PM


Visibility: N/A

Pressure: 30.06 "Hg

Humidity: 66%

Dew point: 53 °F

Location of CampbelltownLocation

Historic Weather in Campbelltown — Graph

°F

Campbelltown temperature yesterday

Maximum temperature yesterday: 76 °F (at 12:00 PM)
Minimum temperature yesterday: 60 °F (at 6:00 AM)
Average temperature yesterday: 67 °F

Past Weeks' High & Low Weather Summary

 TemperatureHumidityPressure
High86 °F (Dec 16, 4:00 PM)99% (Dec 7, 1:00 AM)30.12 "Hg (Dec 7, 1:00 AM)
Low56 °F (Dec 15, 6:00 AM)31% (Dec 14, 4:00 PM)29.41 "Hg (Dec 16, 6:00 PM)
Average69 °F72%29.84 "Hg
* Reported Dec 5 7:00 PM — Dec 20 7:00 PM, Campbelltown, Weather by CustomWeather, © 2014

Note: Actual official high and low records may vary slightly from our data, if they occured in-between our weather recording intervals... More about our weather records

Advertising

Campbelltown weather history for previous 24 hours

 ConditionsComfort  
Time TempWeatherWind HumidityBarometerVisibility
7:00 PM
Dec 20
71 °FMild.8 mph51%30.01 "HgN/A
6:00 PM73 °FMild.10 mph48%29.98 "HgN/A
4:00 PM78 °FWarm.13 mph43%29.97 "HgN/A
3:00 PM79 °FPleasantly warm.3 mph34%29.98 "HgN/A
1:00 PM74 °FMild.8 mph42%30.03 "HgN/A
12:00 PM73 °FScattered clouds.8 mph44%30.05 "HgN/A
10:00 AM69 °FMild.3 mph53%30.07 "HgN/A
9:00 AM66 °FScattered clouds.3 mph60%30.08 "HgN/A
7:00 AM62 °FCool.1 mph72%30.06 "HgN/A
6:00 AM60 °FOvercast.No wind81%30.05 "HgN/A
4:00 AM61 °FCool.5 mph72%30.03 "HgN/A
3:00 AM62 °FOvercast.5 mph68%30.04 "HgN/A
1:00 AM63 °FMild.No wind64%30.07 "HgN/A
12:00 AM64 °FOvercast.No wind63%30.08 "HgN/A
10:00 PM
Dec 19
64 °FMild.3 mph61%30.07 "HgN/A
9:00 PM64 °FOvercast.6 mph58%30.05 "HgN/A
Weather by CustomWeather, © 2014

See weather overviewHow to use our weather pages